This demonstration page uses our WeatherBlox Daily Observations layout. Learn more.

Left ArrowRight Arrow

Hourly Observations for November 3, 2021

Temp ( °F °C ) Dew Point ( °F °C ) Humidity (%) Winds ( mph kmh ) Pressure ( in mb ) Visibility ( mi km ) Precip ( " mm )
12:56 am 00:56 Cloudy 39 3.9 36 2.2 89 89 SW 10 17 30.38 1029 10 16 0.00 0.00
1:56 am 01:56 Cloudy 39 3.9 36 2.2 89 89 SW 8 13 30.39 1029 10 16 0.00 0.00
2:56 am 02:56 Cloudy 38 3.3 36 2.2 93 93 SSW 8 13 30.38 1029 10 16 0.00 0.00
3:28 am 03:28 Cloudy 37 3 36 2 93 93 SSW 7 11 30.42 1030 10 16 0.00 0.00
3:44 am 03:44 Cloudy 37 3 36 2 93 93 SW 9 15 30.41 1030 10 16 0.00 0.00
3:56 am 03:56 Cloudy 38 3.3 35 1.7 89 89 SSW 8 13 30.37 1029 10 16 0.00 0.00
4:32 am 04:32 Cloudy 37 3 36 2 93 93 SSW 8 13 30.40 1029 10 16 0.00 0.00
4:56 am 04:56 Cloudy 38 3.3 36 2.2 93 93 SSW 8 13 30.36 1028 10 16 0.00 0.00
5:22 am 05:22 Cloudy 37 3 36 2 93 93 SSW 9 15 30.38 1029 10 16 0.00 0.00
5:56 am 05:56 Cloudy 38 3.3 36 2.2 93 93 SSW 8 13 30.35 1028 10 16 0.00 0.00
6:56 am 06:56 Cloudy 38 3.3 36 2.2 93 93 SSW 12 19 30.35 1028 10 16 0.00 0.00
7:38 am 07:38 Cloudy 37 3 36 2 93 93 SSW 13 20 30.37 1029 10 16 0.00 0.00
7:56 am 07:56 Cloudy 38 3.3 36 2.2 93 93 SSW 13 20 30.34 1027 10 16 0.00 0.00
8:18 am 08:18 Cloudy 37 3 36 2 93 93 SSW 9 15 30.37 1029 10 16 0.00 0.00
8:56 am 08:56 Cloudy 38 3.3 36 2.2 93 93 SSW 10 17 30.34 1027 10 16 0.00 0.00
9:56 am 09:56 Cloudy 39 3.9 36 2.2 89 89 WSW 13 20 30.35 1028 10 16 0.00 0.00
10:56 am 10:56 Cloudy 38 3.3 35 1.7 89 89 WSW 10 17 30.36 1028 10 16 0.00 0.00
11:56 am 11:56 Cloudy 39 3.9 36 2.2 89 89 WSW 12 19 30.36 1028 10 16 0.00 0.00
12:56 pm 12:56 Cloudy 40 4.4 36 2.2 86 86 SW 13 20 30.33 1027 10 16 0.00 0.00
1:56 pm 13:56 Cloudy 41 5 37 2.8 86 86 SW 10 17 30.30 1026 10 16 0.00 0.00
2:56 pm 14:56 Cloudy 42 5.6 37 2.8 82 82 SSW 10 17 30.28 1026 10 16 0.00 0.00
3:56 pm 15:56 Cloudy 43 6.1 38 3.3 82 82 SSW 8 13 30.26 1025 10 16 0.00 0.00
4:56 pm 16:56 Cloudy 43 6.1 38 3.3 82 82 SSW 9 15 30.25 1025 10 16 0.00 0.00
5:56 pm 17:56 Mostly Cloudy 43 6.1 38 3.3 82 82 S 8 13 30.24 1024 10 16 0.00 0.00
6:05 pm 18:05 Partly Cloudy 43 6 37 3 81 81 S 8 13 30.26 1025 10 16 0.00 0.00
6:56 pm 18:56 Clear 38 3.3 35 1.7 89 89 S 9 15 30.26 1025 10 16 0.00 0.00
7:56 pm 19:56 Clear 35 1.7 33 0.6 93 93 S 8 13 30.27 1025 10 16 0.00 0.00
8:56 pm 20:56 Clear 36 2.2 35 1.7 97 97 SSW 9 15 30.26 1025 10 16 0.00 0.00
9:56 pm 21:56 Clear 34 1.1 33 0.6 97 97 SSW 9 15 30.27 1025 10 16 0.00 0.00
10:56 pm 22:56 Clear 36 2.2 35 1.7 97 97 SSW 10 17 30.27 1025 10 16 0.00 0.00
11:56 pm 23:56 Clear 34 1.1 33 0.6 97 97 SSW 7 11 30.26 1025 7 11 0.00 0.00

Powered by AerisWeather